Location: Bh?mavarapp?du
(16.7041°N, 80.6518°E)
Time: 06:49:40
(UTC+00:00)

GPS 2-12 Rocket1 - Pass Details

Date: 21 April 2021
Orbit: 586 x 651 km, 20.0° (Epoch: 06 May)

Event Time Altitude Azimuth Distance (km) Brightness Sun altitude
Rises 13:31:41 0° 268° (W) 2,876 8.1 -9.5°
Reaches altitude 10° 13:34:05 10° 271° (W) 1,959 7.0 -10.1°
Maximum altitude 13:38:38 65° 353° (N) 661 3.3 -11.1°
Enters shadow 13:42:37 13° 74° (ENE) 1,747 4.9 -12.0°
